Flag for U.S.A. Weather past 2 weeks in San Antonio, Texas, U.S.A.

Now
84 °F

More clouds than sun.


Feels Like: 90 °F
Forecast: 76 / 88 °F
Wind: No wind

Location: San Antonio International Airport

Current Time: Sep 19, 2014 at 12:59:32 PM

Latest Report: Sep 19, 2014 at 11:51 AM


Visibility: 10 mi

Pressure: 29.87 "Hg

Humidity: 67%

Dew point: 72 °F

Location of San AntonioLocation

Historic Weather in San Antonio — Graph

°F

San Antonio temperature yesterday

Maximum temperature yesterday: 94 °F (at 3:51 PM)
Minimum temperature yesterday: 75 °F (at 6:51 AM)
Average temperature yesterday: 83 °F

Past Weeks' High & Low Weather Summary

 TemperatureHumidityPressure
High99 °F (Sep 10, 5:51 PM)94% (Sep 5, 5:51 AM)30.20 "Hg (Sep 5, 5:51 AM)
Low63 °F (Sep 13, 6:51 AM)32% (Sep 10, 5:51 PM)29.73 "Hg (Sep 10, 5:51 PM)
Average81 °F70%29.95 "Hg
* Reported Sep 4 11:51 AM — Sep 19 11:51 AM, San Antonio, Weather by CustomWeather, © 2014

Note: Actual official high and low records may vary slightly from our data, if they occured in-between our weather recording intervals... More about our weather records

Advertising

San Antonio weather history for previous 24 hours

 ConditionsComfort  
Time TempWeatherWind HumidityBarometerVisibility
11:51 AM
Sep 19
84 °FMore clouds than sun.No wind67%29.87 "Hg10 mi
10:51 AM84 °FBroken clouds.7 mph70%29.87 "Hg10 mi
10:04 AM82 °FCloudy.9 mph77%29.93 "Hg10 mi
9:51 AM81 °FPartly sunny.8 mph82%29.87 "Hg10 mi
8:51 AM79 °FPartly sunny.7 mph88%29.85 "Hg10 mi
7:51 AM78 °FPartly cloudy.6 mph90%29.83 "Hg10 mi
6:51 AM77 °FMostly cloudy.6 mph90%29.81 "Hg10 mi
5:58 AM77 °FMostly cloudy.5 mph90%29.87 "Hg10 mi
4:51 AM77 °FMostly cloudy.3 mph88%29.82 "Hg10 mi
3:51 AM76 °FMostly cloudy.No wind91%29.83 "Hg10 mi
2:51 AM76 °FClear.No wind91%29.82 "Hg10 mi
1:51 AM75 °FPassing clouds.No wind90%29.83 "Hg10 mi
12:58 AM76 °FPassing clouds.No wind88%29.89 "Hg10 mi
11:51 PM
Sep 18
76 °FLight rain. Mostly cloudy.7 mph88%29.85 "Hg10 mi
10:51 PM77 °FOvercast.7 mph85%29.86 "Hg10 mi
9:51 PM77 °FPassing clouds.9 mph85%29.85 "Hg10 mi
8:51 PM79 °FMostly cloudy.12 mph79%29.83 "Hg10 mi
7:51 PM82 °FBroken clouds.5 mph70%29.76 "Hg10 mi
6:51 PM85 °FBroken clouds.16 mph59%29.75 "Hg10 mi
5:51 PM92 °FBroken clouds.9 mph46%29.74 "Hg10 mi
4:51 PM93 °FBroken clouds.8 mph42%29.73 "Hg10 mi
3:51 PM94 °FBroken clouds.12 mph43%29.74 "Hg10 mi
2:51 PM92 °FBroken clouds.10 mph46%29.77 "Hg10 mi
1:51 PM90 °FScattered clouds.6 mph50%29.80 "Hg10 mi
12:51 PM87 °FBroken clouds.8 mph57%29.83 "Hg10 mi
Weather by CustomWeather, © 2014

See weather overviewHow to use our weather pages